FW8439 Weather Reports


Display with metric or nautical units.
time (UTC)temp
F
wind
direction
speed
MPH
gust
MPH
rain 1hr
in
rain 24hr
in
rain mn
in
humidity
%
barometer
mb
20260906064510 60 324 0.0 1.0 0.00 0.00 0.00 94 1019.0
20260906064003 60 324 0.0 0.0 0.00 0.00 0.00 95 1019.3
20260906063503 60 324 0.0 0.0 0.00 0.00 0.00 95 1019.5
20260906063005 60 324 0.0 0.0 0.00 0.00 0.00 95 1019.6
20260906062509 60 324 0.0 0.0 0.00 0.00 0.00 94 1019.6
20260906062010 60 324 0.0 0.0 0.00 0.00 0.00 94 1019.6
20260906061504 60 324 0.0 0.0 0.00 0.00 0.00 95 1019.6
20260906061005 60 324 0.0 0.0 0.00 0.00 0.00 94 1019.6
20260906060509 60 324 0.0 0.0 0.00 0.00 0.00 94 1019.6
20260906060003 61 324 0.0 0.0 0.00 0.00 0.00 94 1019.7
20260906055507 61 324 0.0 0.0 0.00 0.00 0.00 94 1019.8
20260906055012 61 324 0.0 0.0 0.00 0.00 0.00 95 1019.9
20260906054515 61 324 0.0 0.0 0.00 0.00 0.00 94 1019.9
20260906054004 60 324 0.0 0.0 0.00 0.00 0.00 94 1020.0
20260906053507 61 324 0.0 0.0 0.00 0.00 0.00 94 1020.1
20260906053015 61 324 0.0 0.0 0.00 0.00 0.00 94 1020.1
20260906052504 61 324 0.0 0.0 0.00 0.00 0.00 94 1020.1
20260906052007 60 324 0.0 0.0 0.00 0.00 0.00 94 1020.1
20260906051512 61 324 0.0 0.0 0.00 0.00 0.00 94 1020.1
20260906051011 61 324 0.0 0.0 0.00 0.00 0.00 94 1020.2
20260906050505 61 324 0.0 0.0 0.00 0.00 0.00 94 1020.2
20260906050010 61 324 0.0 0.0 0.00 0.00 0.00 94 1020.2
20260906045508 61 324 0.0 0.0 0.00 0.00 0.00 94 1020.2
20260906045013 61 324 0.0 0.0 0.00 0.00 0.00 94 1020.1
20260906044509 61 324 0.0 0.0 0.00 0.00 0.00 94 1020.1
20260906044008 61 324 0.0 1.0 0.00 0.00 0.00 94 1020.2
20260906043509 61 28 0.0 1.0 0.00 0.00 0.00 94 1020.1
20260906043005 61 40 0.0 1.0 0.00 0.00 0.00 94 1020.1
20260906042506 61 287 0.0 0.0 0.00 0.00 0.00 94 1020.1
20260906042010 61 287 0.0 0.0 0.00 0.00 0.00 94 1020.1
20260906041505 61 287 0.0 0.0 0.00 0.00 0.00 94 1020.1
20260906041006 61 288 0.0 0.0 0.00 0.00 0.00 94 1020.0
20260906040508 61 288 0.0 0.0 0.00 0.00 0.00 94 1020.2
20260906040020 61 288 0.0 1.0 0.00 0.00 0.00 94 1020.2
20260906035503 61 288 0.0 1.0 0.00 0.00 0.00 93 1020.2
20260906035005 62 288 0.0 0.0 0.00 0.00 0.00 94 1020.3
20260906034518 62 288 0.0 1.0 0.00 0.00 0.00 93 1020.2
20260906034013 62 288 0.0 1.0 0.00 0.00 0.00 94 1020.1
20260906033505 62 288 0.0 0.0 0.00 0.00 0.00 93 1020.2
20260906033020 62 288 0.0 0.0 0.00 0.00 0.00 93 1020.2
20260906032508 62 288 0.0 0.0 0.00 0.00 0.00 93 1020.3
20260906032004 62 288 0.0 1.0 0.00 0.00 0.00 93 1020.3
20260906031514 62 288 0.0 1.0 0.00 0.00 0.00 93 1020.2
20260906031008 62 288 0.0 0.0 0.00 0.00 0.00 93 1020.2
20260906030513 62 288 0.0 0.0 0.00 0.00 0.00 93 1020.3
20260906030012 62 288 0.0 0.0 0.00 0.00 0.00 93 1020.3
20260906025504 62 288 0.0 0.0 0.00 0.00 0.00 93 1020.2
20260906025014 62 288 0.0 1.0 0.00 0.00 0.00 93 1020.2
20260906024512 62 288 0.0 1.0 0.00 0.00 0.00 93 1020.2
20260906024008 62 288 0.0 0.0 0.00 0.00 0.00 93 1020.2
20260906023515 63 288 0.0 0.0 0.00 0.00 0.00 93 1020.2
20260906023008 63 288 0.0 0.0 0.00 0.00 0.00 93 1020.2
20260906022507 63 288 0.0 0.0 0.00 0.00 0.00 92 1020.1
20260906022012 63 288 0.0 0.0 0.00 0.00 0.00 92 1020.2
20260906021508 63 288 0.0 0.0 0.00 0.00 0.00 92 1020.2
20260906021017 63 288 0.0 0.0 0.00 0.00 0.00 92 1020.2
20260906020511 63 288 0.0 0.0 0.00 0.00 0.00 92 1020.3
20260906020018 63 288 0.0 0.0 0.00 0.00 0.00 92 1020.2
20260906015512 63 288 0.0 0.0 0.00 0.00 0.00 92 1020.2
20260906015004 64 288 0.0 0.0 0.00 0.00 0.00 92 1020.2
20260906014514 64 288 0.0 0.0 0.00 0.00 0.00 91 1020.2
20260906014013 64 288 0.0 0.0 0.00 0.00 0.00 91 1020.2
20260906013506 64 288 0.0 1.0 0.00 0.00 0.00 91 1020.2
20260906013012 64 288 0.0 1.0 0.00 0.00 0.00 91 1020.2
20260906012508 64 288 0.0 1.0 0.00 0.00 0.00 90 1020.2
20260906012017 65 288 0.0 0.0 0.00 0.00 0.00 90 1020.1
20260906011506 65 288 0.0 1.0 0.00 0.00 0.00 90 1019.9
20260906011007 65 288 0.0 1.0 0.00 0.00 0.00 90 1019.9
20260906010515 65 288 0.0 0.0 0.00 0.00 0.00 89 1019.9
20260906010018 65 288 0.0 1.0 0.00 0.00 0.00 89 1019.8
20260906005507 65 288 0.0 1.0 0.00 0.00 0.00 89 1019.6
20260906005012 66 288 0.0 1.0 0.00 0.00 0.00 89 1019.6
20260906004513 66 288 0.0 1.0 0.00 0.00 0.00 90 1019.6
20260906004016 66 37 0.0 0.0 0.00 0.00 0.00 89 1019.5
20260906003508 66 37 0.0 0.0 0.00 0.00 0.00 89 1019.5
20260906003008 67 37 0.0 1.0 0.00 0.00 0.00 89 1019.4
20260906002513 67 37 0.0 1.0 0.00 0.00 0.00 89 1019.3
20260906002009 67 37 0.0 1.0 0.00 0.00 0.00 89 1019.2
20260906001521 67 38 0.0 0.0 0.00 0.00 0.00 88 1019.3
20260906001015 68 38 0.0 0.0 0.00 0.00 0.00 88 1019.2
20260906000509 68 38 0.0 0.0 0.00 0.00 0.00 88 1019.2
20260906000035 68 38 0.0 0.0 0.00 0.00 0.00 87 1019.0
20260905235513 68 38 0.0 0.0 0.00 0.00 0.00 86 1019.0
20260905235010 68 33 0.0 0.0 0.00 0.00 0.00 86 1019.1
20260905234515 68 32 0.0 0.0 0.00 0.00 0.00 86 1019.2
20260905234012 69 32 0.0 1.0 0.00 0.00 0.00 86 1019.2
20260905233516 69 32 0.0 1.0 0.00 0.00 0.00 84 1019.1
20260905233027 69 32 0.0 1.0 0.00 0.00 0.00 84 1019.1
20260905232510 69 32 0.0 8.0 0.00 0.00 0.00 85 1019.1
20260905232014 70 142 1.0 8.0 0.00 0.00 0.00 84 1019.0
20260905231526 70 111 0.0 6.0 0.00 0.00 0.00 83 1019.1
20260905231009 70 178 0.0 6.0 0.00 0.00 0.00 84 1019.1
20260905230504 70 107 0.0 4.0 0.00 0.00 0.00 84 1019.0
20260905230003 70 107 0.0 4.0 0.00 0.00 0.00 84 1019.0
20260905225511 71 55 0.0 5.0 0.00 0.00 0.00 84 1019.0
20260905225003 71 176 1.0 5.0 0.00 0.00 0.00 84 1019.0
20260905224503 71 184 0.0 4.0 0.00 0.00 0.00 85 1019.1
20260905224005 71 66 0.0 4.0 0.00 0.00 0.00 84 1019.2
20260905223503 71 128 0.0 4.0 0.00 0.00 0.00 84 1019.1
20260905223007 71 355 1.0 4.0 0.00 0.00 0.00 84 1019.1
20260905222504 72 19 0.0 3.0 0.00 0.00 0.00 84 1019.2
20260905222005 72 277 0.0 3.0 0.00 0.00 0.00 84 1019.1
20260905221508 72 246 0.0 3.0 0.00 0.00 0.00 84 1019.0
20260905221003 72 246 1.0 3.0 0.00 0.00 0.00 84 1019.1
20260905220505 72 252 0.0 4.0 0.00 0.00 0.00 83 1019.2
20260905220011 72 163 0.0 5.0 0.00 0.00 0.00 83 1019.1
20260905215502 72 340 0.0 6.0 0.00 0.00 0.00 83 1019.2
20260905215004 72 143 1.0 6.0 0.00 0.00 0.00 83 1019.1
20260905214506 72 258 0.0 4.0 0.00 0.00 0.00 83 1019.1
20260905214012 72 296 0.0 4.0 0.00 0.00 0.00 83 1018.9
20260905213503 73 296 0.0 3.0 0.00 0.00 0.00 84 1019.0
20260905213004 73 289 0.0 5.0 0.00 0.00 0.00 83 1019.0
20260905212512 73 172 1.0 6.0 0.00 0.00 0.00 83 1019.0
20260905212004 72 323 1.0 6.0 0.00 0.00 0.00 83 1019.0
20260905211503 72 284 1.0 3.0 0.00 0.00 0.00 84 1019.1
20260905211008 72 330 0.0 3.0 0.00 0.00 0.00 83 1019.2
20260905210504 72 252 0.0 2.0 0.00 0.00 0.00 83 1019.3
20260905210003 72 252 0.0 2.0 0.00 0.00 0.00 83 1019.2
20260905205504 72 67 0.0 4.0 0.00 0.00 0.00 84 1019.3
20260905205003 72 74 0.0 5.0 0.00 0.00 0.00 83 1019.3
20260905204522 72 327 0.0 5.0 0.00 0.00 0.00 83 1019.4
20260905204003 72 61 0.0 4.0 0.00 0.00 0.00 83 1019.3
20260905203503 72 250 1.0 4.0 0.00 0.00 0.00 82 1019.4
20260905203018 72 355 0.0 9.0 0.00 0.00 0.00 82 1019.3
20260905202505 72 284 1.0 9.0 0.00 0.00 0.00 81 1019.3
20260905202006 72 137 0.0 4.0 0.00 0.00 0.00 82 1019.2
20260905201512 71 331 0.0 4.0 0.00 0.00 0.00 82 1019.2
20260905201001 72 177 1.0 5.0 0.00 0.00 0.00 83 1019.2
20260905200506 72 130 1.0 5.0 0.00 0.00 0.00 82 1019.3
20260905200015 71 219 1.0 5.0 0.00 0.00 0.00 83 1019.3
20260905195502 71 290 0.0 3.0 0.00 0.00 0.00 82 1019.3
20260905195011 71 215 0.0 3.0 0.00 0.00 0.00 84 1019.5
20260905194508 71 215 0.0 3.0 0.00 0.00 0.00 84 1019.6
20260905194011 71 215 0.0 4.0 0.00 0.00 0.00 85 1019.5
20260905193510 70 215 0.0 4.0 0.00 0.00 0.00 85 1019.5
20260905193008 70 271 0.0 3.0 0.00 0.00 0.00 85 1019.6
20260905192506 69 242 0.0 3.0 0.00 0.00 0.00 84 1019.9
20260905192009 70 351 0.0 3.0 0.00 0.00 0.00 85 1019.7
20260905191528 70 123 0.0 6.0 0.00 0.00 0.00 85 1019.7
20260905191004 69 32 0.0 6.0 0.00 0.00 0.00 85 1019.8
20260905190503 69 219 0.0 2.0 0.00 0.00 0.00 86 1019.9
20260905190020 68 59 0.0 2.0 0.00 0.00 0.00 87 1019.8
20260905185502 68 59 0.0 1.0 0.00 0.00 0.00 89 1019.8
20260905185005 67 59 0.0 1.0 0.00 0.00 0.00 89 1019.8
20260905184542 66 59 0.0 1.0 0.00 0.00 0.00 89 1019.9
20260905184008 66 59 0.0 1.0 0.00 0.00 0.00 91 1019.9
20260905183503 66 59 0.0 0.0 0.00 0.00 0.00 92 1019.8
20260905183032 65 59 0.0 0.0 0.00 0.00 0.00 92 1019.9
20260905182503 65 59 0.0 1.0 0.00 0.00 0.00 91 1020.2
20260905182004 65 59 0.0 1.0 0.00 0.00 0.00 91 1020.4
20260905181512 65 59 0.0 1.0 0.00 0.00 0.00 91 1020.9
20260905181006 64 59 0.0 0.0 0.00 0.00 0.00 91 1020.7
20260905180515 65 59 0.0 0.0 0.00 0.00 0.00 90 1020.8
20260905180007 65 59 0.0 0.0 0.00 0.00 0.00 90 1020.7
20260905175511 65 59 0.0 0.0 0.00 0.00 0.00 90 1020.9
20260905175012 65 59 0.0 0.0 0.00 0.00 0.00 89 1021.4
20260905174509 66 59 0.0 0.0 0.00 0.00 0.00 87 1021.5
20260905174006 67 59 0.0 0.0 0.00 0.00 0.00 87 1021.8
20260905173511 67 59 0.0 4.0 0.00 0.00 0.00 85 1022.2
20260905173009 68 59 0.0 4.0 0.00 0.00 0.00 82 1022.3
20260905172503 69 56 1.0 6.0 0.00 0.00 0.00 80 1022.4
20260905172010 69 67 1.0 6.0 0.00 0.00 0.00 79 1022.4
20260905171523 69 58 1.0 4.0 0.00 0.00 0.00 81 1022.6
20260905171012 70 94 1.0 5.0 0.00 0.00 0.00 79 1022.7
20260905170506 71 34 2.0 5.0 0.00 0.00 0.00 77 1022.7
20260905170016 72 277 1.0 5.0 0.00 0.00 0.00 77 1022.8
20260905165511 73 83 2.0 9.0 0.00 0.00 0.00 76 1022.8
20260905165007 74 222 3.0 9.0 0.00 0.00 0.00 82 1022.8
20260905164515 74 331 1.0 5.0 0.00 0.00 0.00 83 1022.5
20260905164010 75 331 0.0 5.0 0.00 0.00 0.00 82 1022.2
20260905163516 75 174 0.0 4.0 0.00 0.00 0.00 82 1022.2
20260905163010 75 261 1.0 4.0 0.00 0.00 0.00 81 1022.2
20260905162506 76 258 1.0 5.0 0.00 0.00 0.00 81 1022.4
20260905162013 76 180 1.0 6.0 0.00 0.00 0.00 80 1022.1
20260905161507 77 205 2.0 6.0 0.00 0.00 0.00 79 1021.9
20260905161009 77 174 1.0 5.0 0.00 0.00 0.00 78 1021.8
20260905160515 78 236 0.0 5.0 0.00 0.00 0.00 79 1021.8
20260905160024 77 17 0.0 3.0 0.00 0.00 0.00 81 1021.9
20260905155508 76 238 1.0 3.0 0.00 0.00 0.00 82 1022.0
20260905155010 76 344 0.0 4.0 0.00 0.00 0.00 82 1022.3
20260905154512 76 77 0.0 9.0 0.00 0.00 0.00 82 1022.3
20260905154016 76 100 1.0 11.0 0.00 0.00 0.00 81 1022.3
20260905153513 77 261 1.0 11.0 0.00 0.00 0.00 80 1022.3
20260905153022 78 243 2.0 4.0 0.00 0.00 0.00 79 1022.3
20260905152514 80 126 1.0 4.0 0.00 0.00 0.00 77 1022.1
20260905152010 80 5 0.0 6.0 0.00 0.00 0.00 77 1021.9
20260905151524 79 244 2.0 6.0 0.00 0.00 0.00 78 1021.7
20260905151017 79 191 1.0 4.0 0.00 0.00 0.00 79 1021.7
20260905150508 80 285 0.0 8.0 0.00 0.00 0.00 79 1021.8
20260905150017 79 261 1.0 8.0 0.00 0.00 0.00 79 1021.8
20260905145511 78 330 0.0 3.0 0.00 0.00 0.00 80 1021.7
20260905145016 78 360 1.0 3.0 0.00 0.00 0.00 80 1021.6
20260905144511 78 212 0.0 4.0 0.00 0.00 0.00 82 1021.6
20260905144010 78 113 0.0 4.0 0.00 0.00 0.00 80 1021.7
20260905143513 78 297 0.0 3.0 0.00 0.00 0.00 80 1021.8
20260905143023 78 350 0.0 5.0 0.00 0.00 0.00 80 1021.9
20260905142510 77 182 2.0 8.0 0.00 0.00 0.00 81 1021.9
20260905142014 77 290 2.0 8.0 0.00 0.00 0.00 81 1021.8
20260905141519 77 343 1.0 6.0 0.00 0.00 0.00 82 1021.8
20260905141006 76 286 1.0 4.0 0.00 0.00 0.00 83 1021.6
20260905140511 76 160 1.0 3.0 0.00 0.00 0.00 83 1021.7
20260905140017 75 232 1.0 5.0 0.00 0.00 0.00 85 1021.7
20260905135506 74 210 2.0 5.0 0.00 0.00 0.00 86 1021.8
20260905135013 74 32 0.0 4.0 0.00 0.00 0.00 86 1021.9
20260905134512 74 32 0.0 4.0 0.00 0.00 0.00 86 1021.8
20260905134004 74 300 1.0 5.0 0.00 0.00 0.00 86 1021.8
20260905133507 74 168 1.0 5.0 0.00 0.00 0.00 86 1021.7
20260905133013 73 20 1.0 5.0 0.00 0.00 0.00 86 1021.8
20260905132515 73 355 0.0 3.0 0.00 0.00 0.00 87 1022.0
20260905132008 72 150 0.0 4.0 0.00 0.00 0.00 88 1022.2
20260905131508 72 184 0.0 4.0 0.00 0.00 0.00 88 1022.2
20260905131012 72 306 0.0 1.0 0.00 0.00 0.00 89 1022.1
20260905130503 70 306 0.0 2.0 0.00 0.00 0.00 92 1022.1
20260905130015 69 240 0.0 2.0 0.00 0.00 0.00 93 1022.0
20260905125514 68 136 0.0 0.0 0.00 0.00 0.00 93 1022.0
20260905125008 68 136 0.0 0.0 0.00 0.00 0.00 94 1021.9
20260905124510 67 136 0.0 0.0 0.00 0.00 0.00 95 1021.8
20260905124011 66 136 0.0 0.0 0.00 0.00 0.00 94 1021.9
20260905123508 66 136 0.0 0.0 0.00 0.00 0.00 95 1021.9
20260905123024 65 136 0.0 0.0 0.00 0.00 0.00 95 1022.0
20260905122508 65 136 0.0 0.0 0.00 0.00 0.00 95 1022.0
20260905122015 64 136 0.0 0.0 0.00 0.00 0.00 95 1021.9
20260905121520 64 136 0.0 0.0 0.00 0.00 0.00 95 1022.0
20260905121007 64 136 0.0 0.0 0.00 0.00 0.00 95 1022.0
20260905120513 63 136 0.0 0.0 0.00 0.00 0.00 95 1022.0
20260905120017 63 136 0.0 0.0 0.00 0.00 0.00 95 1021.8
20260905115507 62 136 0.0 0.0 0.00 0.00 0.00 95 1021.7
20260905115008 62 136 0.0 0.0 0.00 0.00 0.00 95 1021.7
20260905114515 62 136 0.0 0.0 0.00 0.00 0.00 95 1021.6
20260905114016 62 136 0.0 0.0 0.00 0.00 0.00 95 1021.6
20260905113505 62 136 0.0 0.0 0.00 0.00 0.00 95 1021.6
20260905113010 61 136 0.0 0.0 0.00 0.00 0.00 95 1021.6
20260905112512 61 136 0.0 0.0 0.00 0.00 0.00 95 1021.5
20260905112014 62 136 0.0 0.0 0.00 0.00 0.00 95 1021.5
20260905111513 62 136 0.0 0.0 0.00 0.00 0.00 95 1021.5
20260905111014 62 136 0.0 0.0 0.00 0.00 0.00 95 1021.5
20260905110515 62 136 0.0 0.0 0.00 0.00 0.00 95 1021.4
20260905110040 62 136 0.0 0.0 0.00 0.00 0.00 95 1021.4
20260905105515 61 136 0.0 0.0 0.00 0.00 0.00 95 1021.4
20260905105015 62 136 0.0 0.0 0.00 0.00 0.00 95 1021.2
20260905104530 62 136 0.0 0.0 0.00 0.00 0.00 95 1021.2
20260905104012 62 136 0.0 0.0 0.00 0.00 0.00 95 1021.2
20260905103512 62 136 0.0 0.0 0.00 0.00 0.00 95 1021.2
20260905103028 61 136 0.0 0.0 0.00 0.00 0.00 95 1021.1
20260905102521 61 136 0.0 0.0 0.00 0.00 0.00 95 1021.1
20260905102016 61 136 0.0 0.0 0.00 0.00 0.00 95 1021.1
20260905101530 61 136 0.0 0.0 0.00 0.00 0.00 95 1021.1
20260905101016 61 136 0.0 0.0 0.00 0.00 0.00 95 1021.1
20260905100515 61 136 0.0 0.0 0.00 0.00 0.00 95 1021.0
20260905100021 61 136 0.0 0.0 0.00 0.00 0.00 95 1021.0
20260905095519 62 136 0.0 0.0 0.00 0.00 0.00 95 1021.0
20260905095021 62 136 0.0 0.0 0.00 0.00 0.00 95 1020.9
20260905094531 62 136 0.0 0.0 0.00 0.00 0.00 95 1020.9
20260905094014 62 136 0.0 0.0 0.00 0.00 0.00 95 1020.9
20260905093514 62 136 0.0 0.0 0.00 0.00 0.00 95 1020.8
20260905093030 62 136 0.0 0.0 0.00 0.00 0.00 95 1020.8
20260905092518 62 136 0.0 0.0 0.00 0.00 0.00 95 1020.8
20260905092017 62 136 0.0 0.0 0.00 0.00 0.00 95 1020.8
20260905091534 62 136 0.0 0.0 0.00 0.00 0.00 95 1020.9
20260905091016 62 136 0.0 0.0 0.00 0.00 0.00 95 1020.8
20260905090515 62 136 0.0 0.0 0.00 0.00 0.00 95 1020.8
20260905090035 62 136 0.0 0.0 0.00 0.00 0.00 95 1020.9
20260905085514 62 136 0.0 0.0 0.00 0.00 0.00 95 1020.9
20260905085015 62 136 0.0 0.0 0.00 0.00 0.00 94 1020.9
20260905084531 62 136 0.0 0.0 0.00 0.00 0.00 94 1020.9
20260905084017 62 136 0.0 0.0 0.00 0.00 0.00 94 1021.0
20260905083518 62 136 0.0 0.0 0.00 0.00 0.00 94 1021.0
20260905083025 62 136 0.0 0.0 0.00 0.00 0.00 95 1021.1
20260905082517 63 136 0.0 0.0 0.00 0.00 0.00 95 1021.1
20260905082016 62 136 0.0 0.0 0.00 0.00 0.00 94 1021.1
20260905081526 63 136 0.0 0.0 0.00 0.00 0.00 94 1021.2
20260905081015 63 136 0.0 0.0 0.00 0.00 0.00 94 1021.2
20260905080504 63 136 0.0 0.0 0.00 0.00 0.00 94 1021.3
20260905080015 63 136 0.0 0.0 0.00 0.00 0.00 94 1021.4
20260905075508 63 136 0.0 0.0 0.00 0.00 0.00 94 1021.5
20260905075003 63 136 0.0 0.0 0.00 0.00 0.00 94 1021.5
20260905074512 63 136 0.0 0.0 0.00 0.00 0.00 94 1021.6
20260905074007 64 136 0.0 0.0 0.00 0.00 0.00 94 1021.7
20260905073515 63 136 0.0 0.0 0.00 0.00 0.00 94 1021.7
20260905073010 63 136 0.0 0.0 0.00 0.00 0.00 94 1021.6
20260905072512 63 136 0.0 0.0 0.00 0.00 0.00 94 1021.6
20260905072015 63 136 0.0 0.0 0.00 0.00 0.00 94 1021.7
20260905071519 63 136 0.0 0.0 0.00 0.00 0.00 94 1021.8
20260905071009 63 136 0.0 0.0 0.00 0.00 0.00 94 1021.8
20260905070513 63 136 0.0 0.0 0.00 0.00 0.00 94 1021.9
20260905070010 63 136 0.0 0.0 0.00 0.00 0.00 94 1022.0
20260905065520 63 136 0.0 0.0 0.00 0.00 0.00 94 1022.1
20260905065011 64 136 0.0 0.0 0.00 0.00 0.00 94 1022.1